Regional Weather Roundup
Issued by NWS

Home | Current Version | Previous Version | Text Only | Print | Product List | Glossary On
Versions: 1 2 3 4 5 6 7 8 9 10 11 12 13 14 15 16 17 18 19 20 21 22 23 24 25 26 27 28 29 30 31 32 33 34 35 36 37 38 39 40 41 42 43 44 45 46 47 48 49 50
000
ASUS43 KTOP 280808
RWRKS

WEATHER ROUNDUP FOR KANSAS
NATIONAL WEATHER SERVICE GOODLAND KS
300 AM CDT THU AUG 28 2014

NOTE:  "FAIR" INDICATES FEW OR NO CLOUDS BELOW 12,000 FEET WITH NO
SIGNIFICANT WEATHER AND/OR OBSTRUCTIONS TO VISIBILITY.

KSZ001>006-013>018-027>032-041>047-280900-
NORTHWEST KANSAS

CITY           SKY/WX    TMP DP  RH WIND       PRES   REMARKS
GOODLAND       CLOUDY    60  58  92 N17       30.03F THUNDER
HAYS           CLOUDY    70  64  83 SE6       29.94F
HILL CITY      PTCLDY    66  65  96 NW3       29.96S
RUSSELL        PTCLDY    70  67  90 SE7       29.92F
$$

KSZ061>065-074>080-084>089-280900-
SOUTHWEST KANSAS

CITY           SKY/WX    TMP DP  RH WIND       PRES   REMARKS
DODGE CITY     PTCLDY    72  62  71 S15       29.96F
ELKHART          N/A     66  61  84 S9          N/A
GARDEN CITY    PTCLDY    68  64  87 S7        29.95F
GREAT BEND     MOCLDY    73  64  73 S8        29.95S
LIBERAL        PTCLDY    70  61  73 S10       29.98F
PRATT          CLOUDY    77  63  61 S12       29.98F
$$

KSZ066>073-081>083-090>101-280900-
SOUTHEAST KANSAS

CITY           SKY/WX    TMP DP  RH WIND       PRES   REMARKS
CHANUTE        CLEAR     75  67  76 S7        29.99F
COFFEYVILLE    CLEAR     76  69  79 SE6       29.98F
HUTCHINSON     CLOUDY    80  65  59 S13       29.96F
MEDICINE LODGE   N/A     81  65  58 S9        29.95F
NEWTON         CLOUDY    79  61  53 S10       30.01R
PARSONS        CLEAR     77  68  73 CALM      29.99F
WICHITA INTL   CLOUDY    80  64  58 S12       29.96F
WICHITA JABRA  CLOUDY    79  65  62 S12       29.96F
WICHITA MCCONL CLOUDY    80  65  61 S13       29.97F
WINFIELD       CLOUDY    78  66  66 S10       29.98F
$$

KSZ007>012-019>026-033>040-048>060-102>105-280900-
NORTHEAST KANSAS

CITY           SKY/WX    TMP DP  RH WIND       PRES   REMARKS
CONCORDIA      CLOUDY    74  72  93 S6        29.93F
EMPORIA        MOCLDY    77  67  71 SE10      29.97F
LAWRENCE       MOCLDY    78  72  81 E7        29.98F
MANHATTAN      CLOUDY    80  68  66 S10       29.94F
MARYSVILLE     CLOUDY    73  72  94 SE7       29.95F
OLATHE IND     MOCLDY    75  73  93 SE5       30.00F
OLATHE EXE     MOCLDY    75  73  93 SE3       29.99F
SALINA         CLOUDY    80  66  62 S7        29.94F
TOPEKA BILLARD MOCLDY    78  74  87 E6        29.97F
TOPEKA FORBES  MOCLDY    76  72  87 SE7       29.97F
$$



USA.gov is the U.S. government's official web portal to all federal, state and local government web resources and services.